Regional Weather Roundup
Issued by NWS

Home | Current Version | Previous Version | Graphics & Text | Print | Product List | Glossary On
Versions: 1 2 3 4 5 6 7 8 9 10 11 12 13 14 15 16 17 18 19 20 21 22 23 24 25 26 27 28 29 30 31 32 33 34 35 36 37 38 39 40 41 42 43 44 45 46 47 48 49 50
000
ASUS43 KMKX 010421
RWRWI

WISCONSIN REGIONAL WEATHER ROUNDUP
NATIONAL WEATHER SERVICE MILWAUKEE/SULLIVAN WI
1100 PM CDT SUN AUG 31 2014

NOTE: "FAIR" INDICATES FEW OR NO CLOUDS BELOW 12,000 FEET WITH NO
SIGNIFICANT WEATHER AND/OR OBSTRUCTIONS TO VISIBILITY.

WIZ001-002-006>008-014>016-023>028-010500-
NORTHWEST WISCONSIN

CITY           SKY/WX    TMP DP  RH WIND       PRES   REMARKS
SUPERIOR ARPT  CLOUDY    62  61  96 N3        29.62R
ASHLAND        LGT RAIN  66  64  93 SE6       29.67F
HAYWARD        HVY RAIN  67  66  97 S7        29.69F FOG
SIREN          HVY RAIN  69  64  84 SW20G26   29.70R
RICE LAKE      CLOUDY    70  64  79 SW12G17   29.70F
LADYSMITH      LGT RAIN  73  67  82 S5        29.74R
EAU CLAIRE     RAIN      71  67  87 S8        29.70S FOG
MENOMONIE      TSTM      71  64  77 W15G26    29.71S
NEW RICHMOND   LGT RAIN  67  64  91 NW10G18   29.67F
OSCEOLA        RAIN      67  67 100 SW6       29.70F
$$

WIZ003>005-009-010-017-018-010500-
NORTH CENTRAL WISCONSIN

CITY           SKY/WX    TMP DP  RH WIND       PRES   REMARKS
WOODRUFF       CLOUDY    72  67  85 S12       29.76S
RHINELANDER    CLOUDY    69  65  86 S10       29.79R
EAGLE RIVER    CLOUDY    66  66 100 S5        29.79R
LAND O LAKES   CLOUDY    68  65  90 S9        29.79R
PHILLIPS       CLOUDY    72  66  82 S9G16     29.73R
TOMAHAWK       CLOUDY    68  65  89 CALM      29.78R
MEDFORD        CLOUDY    69  64  82 S5        29.78R
MERRILL        CLOUDY    71  67  88 S5        29.78R
$$

WIZ029-030-035-036-043>047-010500-
CENTRAL WISCONSIN

CITY           SKY/WX    TMP DP  RH WIND       PRES   REMARKS
WAUSAU         CLOUDY    72  67  84 SE7       29.78R
MOSINEE        LGT RAIN  70  68  94 S3        29.80R
MARSHFIELD     CLOUDY    72  68  87 SE7       29.76S
STEVENS POINT  MOCLDY    71  66  83 S8        29.78F
WAUPACA        MOCLDY    72  70  93 SE6       29.79R
WAUTOMA        CLOUDY    71  67  87 SE5       29.79R
WISC RAPIDS    CLOUDY    75  67  76 S9        29.78R
CAMP DOUGLAS   CLOUDY    76  70  81 S9        29.75F
$$

WIZ011>013-019>022-031-037>040-048>050-010500-
NORTHEAST WISCONSIN

CITY           SKY/WX    TMP DP  RH WIND       PRES   REMARKS
ANTIGO         CLOUDY    66  66  98 S12G17    29.81S FOG
STURGEON BAY   CLOUDY    66  63  88 S12       29.83R
GREEN BAY      MOCLDY    67  65  93 S5        29.81R
MANITOWOC      CLOUDY    66  66 100 S8        29.84R FOG
APPLETON       MOCLDY    70  68  94 SE9       29.80R
CLINTONVILLE   PTCLDY    64  64 100 SE3       29.80R FOG
OSHKOSH        CLEAR     69  67  93 S10       29.80R
$$

WIZ032>034-041-042-053>061-010500-
SOUTHWEST WISCONSIN

CITY           SKY/WX    TMP DP  RH WIND       PRES   REMARKS
LA CROSSE      CLOUDY    70  67  90 SE5       29.69F
SPARTA         CLOUDY    76  65  67 S13G21    29.74S
VIROQUA        FAIR      74  67  79 S9G17     29.77S
BOSCOBEL       CLOUDY    78  68  71 S7        29.77R HX  80
PRAIRIE DU CHI LGT RAIN  79  67  65 S8        29.76R HX  81
PLATTEVILLE    FAIR      74  69  84 SE12      29.80F
$$

WIZ056-057-062-063-064-067-068-010500-
SOUTH CENTRAL WISCONSIN

CITY           SKY/WX    TMP DP  RH WIND       PRES   REMARKS
BARABOO/DELLS  MOCLDY    74  67  76 S10       29.78F
LONE ROCK      CLOUDY    82  69  64 S12       29.77F HX  85
WATERTOWN      CLEAR     71  69  95 S5        29.84R
MADISON        MOCLDY    75  69  81 S12       29.81S
MIDDLETON      FAIR      76  69  78 S12       29.81S
MONROE         CLOUDY    72  70  94 S14       29.83S
JANESVILLE     MOCLDY    73  68  83 S5        29.84S
$$

WIZ051-052-058>065-066-070>072-010500-
SOUTHEAST WISCONSIN

CITY           SKY/WX    TMP DP  RH WIND       PRES   REMARKS
MILWAUKEE      PTCLDY    74  66  76 S9        29.84S
WAUKESHA       CLEAR     70  64  83 S7        29.86R
MILWAUKEE/TIMM CLEAR     72  63  73 S7        29.85R
RACINE         PTCLDY    74  67  78 S7        29.86S
BURLINGTON     CLEAR     69  66  91 S5        29.86R
KENOSHA        PTCLDY    74  68  81 S10       29.86R
FOND DU LAC    PTCLDY    70  66  87 S8        29.81S
SHEBOYGAN      PTCLDY    68  67  96 S7        29.83R FOG
WEST BEND      PTCLDY    68  64  88 S3        29.84R
JUNEAU         CLEAR     72  67  86 S10       29.85R
$$

LSZ147-162-010500-
LAKE SUPERIOR

STATION/POSITION TIME  TEMP    WIND        PRES    WAVE
                       AIR SEA DIR/SP/G            HT/PER
                 (UTC) (F)     (DEG/KT/KT) (MB)    (FT/S)
W MID LAKE BUOY  0350   63 58  160/ 12/ 12 1003.7R   2/ 4
DEVILS ISLAND    0400   67     170/ 14/ 21 1003.0S
PORT WING        0340   68     150/  7/ 13 1002.7F
SAXON HARBOR     0320   73     260/  6/ 21 1004.7R
$$

LMZ867-665-643>646-010500-
LAKE MICHIGAN

STATION/POSITION TIME  TEMP    WIND        PRES    WAVE
                       AIR SEA DIR/SP/G            HT/PER
                 (UTC) (F)     (DEG/KT/KT) (MB)    (FT/S)
N MID LAKE BUOY  0350   66 65  150/  8/ 10 1009.8R   1
NORTHPORT PIER   0300   65     150/ 10/ 14 1009.5F
KEWAUNEE LAKESHO 0400   61     200/  7/ 10 1008.9R
SHEBOYGAN LAKESH 0400   67 49  180/ 12/ 12 1009.9F
ATWATER BUOY     0400   71     160/  8/ 10 1011.6R
MILWAUKEE LAKESH 0400   74     180/  8/  9   N/A
S MID LAKE BUOY  0350   73 70  170/ 12/ 14 1011.0R   1/ 2
KENOSHA   LAKESH 0400   76     200/ 13/ 15 1010.8R
$$

TC  - TEMPERATURE IN CELSIUS
VSB - VISIBILITY IN STATUTE MILES
WCI - WIND CHILL INDEX
HX  - HEAT INDEX




USA.gov is the U.S. government's official web portal to all federal, state and local government web resources and services.